Weather History for Kendall, FL

Change the Weather History Date:

Friday, November 18, 2011

  Actual Average Record
Temperature  
Mean Temperature 74 °F -  
Max Temperature 78 °F 81 °F 85 °F (1993)
Min Temperature 71 °F 62 °F 48 °F (2002)
Cooling Degree Days 10    
Growing Degree Days 24 (Base 50)    
Moisture  
Dew Point 72 °F    
Average Humidity 91    
Maximum Humidity 100    
Minimum Humidity 78    
Precipitation  
Precipitation 1.15 in - - ()
Sea Level Pressure  
Sea Level Pressure 30.10 in    
Wind  
Wind Speed 9 mph (ENE)    
Max Wind Speed 17 mph    
Max Gust Speed 24 mph    
Visibility 7 miles    
Events Rain    
Averages and records for this station are not official NWS values.
T = Trace of Precipitation, MM = Missing Value Source: NWS Daily Summary

Daily Weather History Graph

Daily Weather History Graph

Search for Another Location

Airport:

Trip Planner

Search our weather history database for the weather conditions in past years. The results will help you decide how hot, cold, wet, or windy it might be!

Date:

Astronomy

Nov. 18, 2011 Rise Set
Actual Time 6:41 AM EST 5:32 PM EST
Civil Twilight 6:16 AM EST 5:56 PM EST
Nautical Twilight 5:49 AM EST 6:24 PM EST
Astronomical Twilight 5:21 AM EST 6:51 PM EST
Moon No Moon Rise 12:37 PM EST (11/18)
Length of Visible Light 11h 39m
Length of Day
10h 50m
Waning Gibbous, 49% of the Moon is Illuminated
Nov 18
Waning Gibbous
Nov 25
New
Dec 2
First Quarter
Dec 10
Full
Dec 17
Last Quarter

Hourly Weather History & Observations

Time (EST) Temp. Dew Point Humidity Pressure Visibility Wind Dir Wind Speed Gust Speed Precip Events Conditions
12:53 AM 75.0 °F 72.0 °F 90% 30.05 in 10.0 mi ENE 5.8 mph - N/A   Overcast
1:53 AM 75.0 °F 72.0 °F 90% 30.04 in 10.0 mi Calm Calm - N/A   Overcast
2:53 AM 73.9 °F 71.1 °F 91% 30.04 in 10.0 mi NE 3.5 mph - N/A   Overcast
3:53 AM 73.4 °F 71.6 °F 94% 30.04 in 10.0 mi NE 4.6 mph - N/A   Scattered Clouds
5:53 AM 73.0 °F 70.0 °F 90% 30.06 in 10.0 mi ENE 5.8 mph - N/A   Overcast
6:53 AM 73.4 °F 71.6 °F 94% 30.08 in 10.0 mi NNE 6.9 mph - N/A   Overcast
7:53 AM 73.9 °F 71.1 °F 91% 30.10 in 10.0 mi ENE 11.5 mph - N/A   Overcast
8:53 AM 75.9 °F 71.1 °F 85% 30.12 in 10.0 mi NE 12.7 mph - N/A   Overcast
9:26 AM 77.0 °F 71.6 °F 83% 30.12 in 10.0 mi NE 12.7 mph - N/A   Overcast
9:35 AM 78.8 °F 71.6 °F 78% 30.12 in 10.0 mi ENE 11.5 mph - N/A   Mostly Cloudy
9:44 AM 78.8 °F 71.6 °F 78% 30.12 in 10.0 mi ENE 12.7 mph - N/A   Mostly Cloudy
9:53 AM 78.1 °F 72.0 °F 81% 30.13 in 10.0 mi ENE 13.8 mph - N/A   Mostly Cloudy
10:03 AM 78.8 °F 71.6 °F 78% 30.13 in 10.0 mi ENE 12.7 mph - N/A   Mostly Cloudy
10:47 AM 75.2 °F 71.6 °F 89% 30.13 in 1.5 mi ENE 11.5 mph - 0.00 in Rain Heavy Rain
10:53 AM 73.9 °F 72.0 °F 93% 30.13 in 1.2 mi NE 11.5 mph - N/A Rain Heavy Rain
10:59 AM 75.2 °F 73.4 °F 94% 30.13 in 4.0 mi NE 6.9 mph - N/A Rain Light Rain
11:16 AM 75.2 °F 73.4 °F 94% 30.13 in 4.0 mi ENE 9.2 mph - N/A Rain Rain
11:24 AM 75.2 °F 73.4 °F 94% 30.12 in 10.0 mi ENE 8.1 mph - N/A   Overcast
11:50 AM 78.8 °F 71.6 °F 78% 30.11 in 10.0 mi East 16.1 mph 24.2 mph N/A   Mostly Cloudy
11:53 AM 78.1 °F 71.1 °F 79% 30.11 in 10.0 mi East 17.3 mph 24.2 mph N/A   Mostly Cloudy
12:53 PM 77.0 °F 71.1 °F 82% 30.10 in 10.0 mi ENE 15.0 mph - N/A   Mostly Cloudy
1:36 PM 71.6 °F 69.8 °F 94% 30.09 in 2.0 mi NE 4.6 mph - N/A Rain Heavy Rain
1:40 PM 71.6 °F 71.6 °F 100% 30.08 in 0.8 mi Variable 3.5 mph - N/A Rain Heavy Rain
1:43 PM 71.6 °F 71.6 °F 100% 30.08 in 1.0 mi Variable 6.9 mph - N/A Rain Heavy Rain
1:53 PM 73.0 °F 72.0 °F 96% 30.08 in 2.0 mi North 4.6 mph - N/A Rain Light Rain
2:00 PM 73.4 °F 71.6 °F 94% 30.08 in 5.0 mi NE 8.1 mph - N/A Rain Light Rain
2:46 PM - - N/A% 30.08 in 1.8 mi East 11.5 mph - N/A Rain Heavy Rain
2:53 PM - - N/A% 30.09 in 1.0 mi ENE 12.7 mph - N/A Rain Heavy Rain
2:59 PM - - N/A% 30.08 in 3.0 mi ENE 11.5 mph - 0.00 in Rain Light Rain
3:17 PM - - N/A% 30.08 in 7.0 mi ENE 11.5 mph - 0.01 in Rain Light Rain
3:33 PM - - N/A% 30.08 in 10.0 mi ENE 11.5 mph - 0.01 in   Overcast
3:53 PM 73.9 °F 72.0 °F 93% 30.08 in 10.0 mi NE 11.5 mph - 0.01 in   Mostly Cloudy
4:10 PM 73.4 °F 71.6 °F 94% 30.09 in 10.0 mi NE 11.5 mph - N/A   Mostly Cloudy
4:15 PM 73.4 °F 71.6 °F 94% 30.08 in 2.0 mi ENE 12.7 mph - 0.06 in Rain Heavy Rain
4:22 PM 73.4 °F 71.6 °F 94% 30.08 in 1.2 mi NE 10.4 mph - 0.15 in Rain Heavy Rain
4:39 PM 73.4 °F 71.6 °F 94% 30.09 in 2.0 mi ENE 6.9 mph - 0.25 in Rain Rain
4:48 PM 73.4 °F 71.6 °F 94% 30.09 in 1.0 mi ENE 11.5 mph - 0.33 in Rain Heavy Rain
4:53 PM 73.0 °F 72.0 °F 96% 30.09 in 1.0 mi ENE 16.1 mph 20.7 mph 0.45 in Rain Heavy Rain
5:06 PM 73.4 °F 71.6 °F 94% 30.09 in 0.8 mi NE 13.8 mph 19.6 mph 0.36 in Rain Heavy Rain
5:15 PM 73.4 °F 71.6 °F 94% 30.09 in 1.0 mi NE 13.8 mph 21.9 mph 0.52 in Rain Heavy Rain
5:22 PM 73.4 °F 71.6 °F 94% 30.09 in 1.8 mi NNE 8.1 mph - 0.59 in Rain Heavy Rain
5:26 PM 73.4 °F 71.6 °F 94% 30.10 in 2.0 mi NE 8.1 mph - 0.61 in Rain Heavy Rain
5:31 PM 73.4 °F 71.6 °F 94% 30.10 in 3.0 mi ENE 6.9 mph - 0.61 in Rain Light Rain
5:53 PM 73.9 °F 72.0 °F 93% 30.10 in 10.0 mi ENE 6.9 mph - 0.68 in Rain Light Rain
6:41 PM 73.4 °F 71.6 °F 94% 30.11 in 10.0 mi NE 9.2 mph - 0.00 in   Mostly Cloudy
6:53 PM 73.9 °F 71.1 °F 91% 30.12 in 10.0 mi NE 9.2 mph - 0.00 in   Mostly Cloudy
7:07 PM 73.4 °F 71.6 °F 94% 30.12 in 10.0 mi ENE 10.4 mph - 0.00 in Rain Light Rain
7:53 PM 73.9 °F 71.1 °F 91% 30.13 in 10.0 mi East 11.5 mph - 0.00 in Rain Light Rain
8:08 PM 73.4 °F 71.6 °F 94% 30.13 in 10.0 mi East 15.0 mph - 0.00 in   Scattered Clouds
8:53 PM 73.9 °F 71.1 °F 91% 30.14 in 10.0 mi ENE 11.5 mph - 0.00 in   Mostly Cloudy
9:16 PM 73.4 °F 71.6 °F 94% 30.14 in 9.0 mi East 10.4 mph - 0.00 in Rain Light Rain
9:53 PM 73.9 °F 71.1 °F 91% 30.14 in 10.0 mi ENE 12.7 mph - 0.01 in   Mostly Cloudy
10:53 PM 73.9 °F 71.1 °F 91% 30.14 in 10.0 mi ENE 10.4 mph - 0.00 in Rain Light Rain
11:53 PM 73.9 °F 71.1 °F 91% 30.13 in 10.0 mi East 11.5 mph - 0.00 in   Mostly Cloudy